This demonstration page uses our WeatherBlox Daily Observations layout. Learn more.

Left ArrowRight Arrow

Hourly Observations for April 2, 2016

Temp ( °F °C ) Dew Point ( °F °C ) Humidity (%) Winds ( mph kmh ) Pressure ( in mb ) Visibility ( mi km ) Precip ( " mm )
12:51 am 00:51 Clear 52 11.1 31 -0.6 45 45 SE 9 15 30.10 1019 10 16 0.00 0.00
1:51 am 01:51 Clear 50 10 31 -0.6 48 48 SSE 9 15 30.10 1019 10 16 0.00 0.00
2:51 am 02:51 Clear 48 8.9 31 -0.6 52 52 SSE 9 15 30.11 1020 10 16 0.00 0.00
3:51 am 03:51 Clear 49 9.4 31 -0.6 50 50 SE 12 19 30.14 1021 10 16 0.00 0.00
4:51 am 04:51 Clear 47 8.3 30 -1.1 52 52 SSE 9 15 30.16 1021 10 16 0.00 0.00
5:51 am 05:51 Clear 47 8.3 31 -0.6 54 54 SE 10 17 30.18 1022 10 16 0.00 0.00
6:51 am 06:51 Sunny 49 9.4 31 -0.6 50 50 SSE 9 15 30.21 1023 10 16 0.00 0.00
7:51 am 07:51 Sunny 53 11.7 32 0 45 45 ESE 12 19 30.24 1024 10 16 0.00 0.00
8:51 am 08:51 Sunny 56 13.3 31 -0.6 39 39 SE 8 13 30.24 1024 10 16 0.00 0.00
9:51 am 09:51 Sunny 60 15.6 31 -0.6 33 33 SE 8 13 30.23 1024 10 16 0.00 0.00
10:51 am 10:51 Sunny 64 17.8 28 -2.2 26 26 SE 13 20 30.22 1023 10 16 0.00 0.00
11:51 am 11:51 Sunny 66 18.9 27 -2.8 23 23 SE 10 17 30.18 1022 10 16 0.00 0.00
12:51 pm 12:51 Sunny 69 20.6 23 -5 17 17 ENE 7 11 30.15 1021 10 16 0.00 0.00
1:51 pm 13:51 Sunny 71 21.7 21 -6.1 15 15 SE 10 17 30.11 1020 10 16 0.00 0.00
2:51 pm 14:51 Sunny 72 22.2 20 -6.7 14 14 undefined N/A 30.08 1019 10 16 0.00 0.00
3:51 pm 15:51 Sunny 72 22.2 18 -7.8 13 13 SE 10 17 30.06 1018 10 16 0.00 0.00
4:51 pm 16:51 Sunny 72 22.2 18 -7.8 13 13 ESE 7 11 30.05 1018 10 16 0.00 0.00
5:51 pm 17:51 Sunny 71 21.7 17 -8.3 13 13 S 14 22 30.04 1017 10 16 0.00 0.00
6:51 pm 18:51 Clear 67 19.4 16 -8.9 14 14 S 7 11 30.05 1018 10 16 0.00 0.00
7:51 pm 19:51 Clear 61 16.1 15 -9.4 17 17 S 3 6 30.07 1018 10 16 0.00 0.00
8:51 pm 20:51 Clear 56 13.3 13 -10.6 18 18 E 7 11 30.09 1019 10 16 0.00 0.00
9:51 pm 21:51 Clear 54 12.2 12 -11.1 19 19 ESE 6 9 30.10 1019 10 16 0.00 0.00
10:51 pm 22:51 Clear 52 11.1 12 -11.1 20 20 SE 5 7 30.11 1020 10 16 0.00 0.00
11:51 pm 23:51 Clear 50 10 12 -11.1 22 22 SSE 6 9 30.11 1020 10 16 0.00 0.00

Powered by AerisWeather